User: anonymous   Login
Location: Unspecified
(0.0000°N, 0.0000°E)
Time: 16:40:38
(UTC+02:00)
Language:

Cosmos 1892 Rocket - Orbit

View from above orbital plane
View from above orbital plane
View from above satellite
View from above satellite

Ground track
Ground track

The orbit data is extracted from the following two-line orbital elements,

1 18422U 87088B   17204.92302637 +.00000060 +00000-0 +45201-5 0  9997
2 18422 082.5133 142.4601 0018629 322.0517 080.1039 14.82931587586171
Epoch (UTC): 23 July 2017 22:09:09
Eccentricity: 0.0018629
inclination: 82.5133°
perigee height: 607 km
apogee height: 633 km
right ascension of ascending node: 142.4601°
argument of perigee: 322.0517°
revolutions per day: 14.82931587
mean anomaly at epoch: 80.1039°
orbit number at epoch: 58617

The dashed part of the orbit path shows where the satellite is in the earth's shadow,  

DLR